Location: Lobstick
(53.6000°N, 115.1667°W)
Time: 07:51:28
(UTC+00:00)

O/OREOS (USA 219) - Visible Passes

Search period start: 06 December 2023 00:00
Search period end: 16 December 2023 00:00
Orbit: 621 x 646 km, 72.0° (Epoch: 22 May)

Date Brightness Start Highest point End Pass type
(mag) Time Alt. Az. Time Alt. Az. Time Alt. Az.
06 Dec ? 13:19:53 10° NNE 13:20:18 10° NNE 13:20:42 10° NNE visible
06 Dec ? 14:57:18 10° NNW 15:01:15 29° NE 15:05:12 10° ESE visible
07 Dec ? 13:40:41 10° N 13:43:02 14° NNE 13:45:24 10° ENE visible
08 Dec ? 14:02:17 10° N 14:05:39 20° NE 14:09:00 10° E visible
09 Dec ? 12:46:16 10° N 12:47:12 11° NNE 12:48:10 10° NE visible
09 Dec ? 14:24:04 10° NNW 14:28:06 31° NE 14:32:08 10° ESE visible
10 Dec ? 13:07:29 10° N 13:09:55 15° NNE 13:12:28 10° ENE visible
10 Dec ? 14:45:58 10° NNW 14:50:24 52° NE 14:54:50 10° SE visible
11 Dec ? 13:29:15 11° N 13:32:31 21° NE 13:35:59 10° E visible
12 Dec ? 12:13:35 11° NNE 12:14:06 11° NNE 12:15:24 10° NE visible
12 Dec ? 13:51:02 11° NNW 13:54:57 33° NE 13:59:04 10° ESE visible
13 Dec ? 12:35:23 14° N 12:36:49 15° NNE 12:39:31 10° ENE visible
13 Dec ? 14:12:50 10° NNW 14:17:13 57° NE 14:21:42 10° SE visible
14 Dec ? 12:57:13 16° N 12:59:23 22° NE 13:02:59 10° E visible
14 Dec ? 14:34:48 10° NNW 14:39:20 79° WSW 14:43:53 10° SSE visible
15 Dec ? 11:41:37 11° NNE 11:41:37 11° NNE 11:42:35 10° NE visible
15 Dec ? 13:19:05 19° N 13:21:48 35° NE 13:25:59 10° ESE visible
15 Dec ? 14:57:02 10° NW 15:01:17 41° WSW 15:05:33 10° S visible
